Montpelier, VT

12:34 PM EST on December 05, 2019 (GMT -0500)
Knapp State

Weather History for KMPV - November, 2019

Change the Weather History Date:

Sunday, November 17, 2019

  Actual Average Record
Temperature  
Mean Temperature 15 °F 35 °F  
Max Temperature 30 °F 43 °F 66 °F (2006)
Min Temperature 0 °F 27 °F 5 °F (1972)
Degree Days  
Heating Degree Days 50 30  
Month to date heating degree days 619 462  
Since 1 July heating degree days 1466 1418  
Cooling Degree Days 0 0  
Month to date cooling degree days 0 0  
Year to date cooling degree days 220 264  
Moisture  
Dew Point 3 °F    
Average Humidity 64    
Maximum Humidity 91    
Minimum Humidity 27    
Precipitation  
Precipitation 0.00 in 0.11 in 1.09 in (1965)
Month to date precipitation 1.15 1.81  
Year to date precipitation 45.45 33.17  
Sea Level Pressure  
Sea Level Pressure 30.46 in    
Wind  
Wind Speed 1 mph ()    
Max Wind Speed 14 mph    
Max Gust Speed 17 mph    
Visibility 10.0 miles    
Events      
T = Trace of Precipitation, MM = Missing Value Source: Averaged Metar Reports

Daily Weather History Graph

Daily Weather History Graph

Search for Another Location

Airport or City:

Astronomy

Nov. 17, 2019 Rise Set
Actual Time 6:48 AM EST 4:21 PM EST
Civil Twilight 6:16 AM EST 4:53 PM EST
Nautical Twilight 5:41 AM EST 5:28 PM EST
Astronomical Twilight 5:07 AM EST 6:02 PM EST
Moon 8:52 PM EST (11/17) 11:34 AM EST (11/17)
Length of Visible Light 10h 36m
Length of Day
9h 33m
Waning Gibbous, 73% of the Moon is Illuminated
Nov 17
Waning Gibbous
Nov 19
Last Quarter
Nov 26
New
Dec 4
First Quarter
Dec 12
Full

Hourly Weather History & Observations

Time (EST) Temp. Windchill Dew Point Humidity Pressure Visibility Wind Dir Wind Speed Gust Speed Precip Events Conditions
12:51 AM 3.0 °F - -0.9 °F 84% 30.59 in 10.0 mi Calm Calm - N/A   Clear
1:51 AM 3.0 °F - -0.9 °F 84% 30.59 in 10.0 mi Calm Calm - N/A   Clear
2:51 AM 1.9 °F - -2.0 °F 83% 30.59 in 10.0 mi Calm Calm - N/A   Clear
3:51 AM 1.9 °F - -2.0 °F 83% 30.58 in 10.0 mi Calm Calm - N/A   Clear
4:51 AM 1.9 °F -5.6 °F -2.9 °F 80% 30.58 in 10.0 mi SSE 3.5 mph - N/A   Clear
5:51 AM 1.0 °F - -4.0 °F 79% 30.58 in 10.0 mi Calm Calm - N/A   Clear
6:51 AM 1.0 °F - -2.9 °F 83% 30.58 in 10.0 mi Calm Calm - N/A   Clear
7:51 AM 1.0 °F - -0.9 °F 91% 30.58 in 10.0 mi Calm Calm - N/A   Clear
8:51 AM 7.0 °F - 3.0 °F 84% 30.56 in 10.0 mi Calm Calm - N/A   Clear
9:51 AM 12.0 °F - 3.9 °F 70% 30.54 in 10.0 mi Calm Calm - N/A   Clear
10:51 AM 18.0 °F 12.7 °F 6.1 °F 60% 30.52 in 10.0 mi ENE 3.5 mph - N/A   Clear
11:51 AM 24.1 °F - 6.1 °F 46% 30.48 in 10.0 mi Calm Calm - N/A   Clear
12:51 PM 28.9 °F 20.4 °F 1.0 °F 30% 30.43 in 10.0 mi SSE 9.2 mph - N/A   Clear
1:51 PM 30.0 °F 21.1 °F -0.0 °F 28% 30.41 in 10.0 mi SSW 10.4 mph - N/A   Clear
2:51 PM 30.0 °F 21.7 °F 1.0 °F 29% 30.39 in 10.0 mi South 9.2 mph - N/A   Clear
3:51 PM 28.9 °F 23.9 °F 3.0 °F 33% 30.38 in 10.0 mi SSW 4.6 mph - N/A   Clear
4:51 PM 24.1 °F 19.7 °F 5.0 °F 44% 30.38 in 10.0 mi South 3.5 mph - N/A   Clear
5:51 PM 21.9 °F - 6.1 °F 51% 30.38 in 10.0 mi Calm Calm - N/A   Clear
6:51 PM 17.1 °F 10.0 °F 6.1 °F 62% 30.37 in 10.0 mi South 4.6 mph - N/A   Clear
7:51 PM 17.1 °F - 6.1 °F 62% 30.35 in 10.0 mi Calm Calm - N/A   Clear
8:51 PM 17.1 °F - 6.1 °F 62% 30.34 in 10.0 mi Calm Calm - N/A   Mostly Cloudy
9:51 PM 19.0 °F - 9.0 °F 65% 30.30 in 10.0 mi Calm Calm - N/A   Overcast
10:51 PM 19.9 °F - 10.9 °F 68% 30.28 in 10.0 mi Calm Calm - N/A   Overcast
11:51 PM 21.9 °F - 12.0 °F 66% 30.24 in 10.0 mi Calm Calm - N/A   Overcast